(°C)
25°
25°
26°
26°
26°
25°
25°
(°C)
24°
24°
25°
25°
25°
24°
23°
დსდ
დსდ
სდ
სდ
სდ
სდ
სსდ
(კმ/სთ)
11-19
11-19
9-18
8-18
8-16
8-14
8-11
(მმ)
0
0
0
0
0
0
0
(%)
0
0
0
0
0
0
0

მზის სიმაღლე

/ 53.4°
sun-icon
UV 4
05:17
20:46
ახალგაზრდა მთვარე (313°)
00:54
18:18

METAR 52.53°ჩრ. 31.02°აღმ. (UMGG)-თვის

დრო პირობები ტემპერატურა/
ნამი
ქარი ხილვადობა ამინდი ღრუბლები წნევა ცვლილება დაუმუშავებელი
VFR 25°C / 9°C 190º 6kt >10km - Clouds and Visibility OK 1018 No Significant change UMGG 041030Z 19003MPS CAVOK 25/09 Q1018 R28/CLRD// NOSIG
VFR 25°C / 9°C 200º 6kt >10km - Clouds and Visibility OK 1018 No Significant change UMGG 041000Z 20003MPS CAVOK 25/09 Q1018 R28/CLRD// NOSIG
VFR 24°C / 9°C 240º 10kt Gust 16kt >10km - Clouds and Visibility OK 1018 No Significant change UMGG 040930Z 24005G08MPS CAVOK 24/09 Q1018 R28/CLRD// NOSIG
VFR 24°C / 9°C 190º 6kt >10km - Clouds and Visibility OK 1018 No Significant change UMGG 040900Z 19003MPS CAVOK 24/09 Q1018 R28/CLRD// NOSIG
VFR 24°C / 8°C 210º 10kt >10km - Clouds and Visibility OK 1018 No Significant change UMGG 040830Z 21005MPS CAVOK 24/08 Q1018 R28/CLRD// NOSIG
VFR 24°C / 8°C 210º 10kt >10km - Clouds and Visibility OK 1018 No Significant change UMGG 040800Z 21005MPS CAVOK 24/08 Q1018 R28/CLRD// NOSIG
VFR 22°C / 11°C 230º 6kt >10km - Clouds and Visibility OK 1018 No Significant change UMGG 040730Z 23003MPS CAVOK 22/11 Q1018 R28/CLRD// NOSIG
VFR 22°C / 11°C 220º 4kt >10km - Clouds and Visibility OK 1018 No Significant change UMGG 040700Z 22002MPS CAVOK 22/11 Q1018 R28/D NOSIG
VFR 21°C / 12°C 170º 6kt >10km - Clouds and Visibility OK 1018 No Significant change UMGG 040630Z 17003MPS CAVOK 21/12 Q1018 R28/D NOSIG
VFR 21°C / 12°C 160º 6kt >10km - Clouds and Visibility OK 1018 No Significant change UMGG 040600Z 16003MPS CAVOK 21/12 Q1018 R28/D NOSIG
VFR 19°C / 13°C variable 2kt >10km - Clouds and Visibility OK 1018 No Significant change UMGG 040530Z VRB01MPS CAVOK 19/13 Q1018 R28/CLRD// NOSIG
VFR 19°C / 13°C 230º 6kt >10km - Clouds and Visibility OK 1017 No Significant change UMGG 040500Z 23003MPS CAVOK 19/13 Q1017 R28/D NOSIG
VFR 15°C / 12°C 220º 6kt >10km - Clouds and Visibility OK 1017 No Significant change UMGG 040430Z 22003MPS CAVOK 15/12 Q1017 R28/CLRD// NOSIG
VFR 15°C / 12°C 220º 6kt >10km - Clouds and Visibility OK 1017 No Significant change UMGG 040400Z 22003MPS CAVOK 15/12 Q1017 R28/CLRD// NOSIG
VFR 13°C / 12°C 240º 6kt >10km - Clouds and Visibility OK 1017 No Significant change UMGG 040330Z 24003MPS CAVOK 13/12 Q1017 R28/CLRD// NOSIG
VFR 13°C / 12°C 240º 6kt 9000m - Clear 1016 No Significant change UMGG 040300Z 24003MPS 9000 NSC 13/12 Q1016 R28/D NOSIG
MVFR 15°C / 13°C 260º 6kt 8000m - Clear 1016 No Significant change UMGG 040200Z 26003MPS 8000 NSC 15/13 Q1016 R28/CLRD// NOSIG
MVFR 15°C / 13°C 250º 6kt 7000m - Clear 1016 No Significant change UMGG 040100Z 25003MPS 7000 NSC 15/13 Q1016 R28/CLRD// NOSIG
MVFR 16°C / 13°C 260º 6kt 8000m - Clear 1016 No Significant change UMGG 040000Z 26003MPS 8000 NSC 16/13 Q1016 R28/CLRD// NOSIG
MVFR 16°C / 14°C 240º 8kt 8000m - Clear 1016 No Significant change UMGG 032300Z 24004MPS 8000 NSC 16/14 Q1016 R28/CLRD// NOSIG
MVFR 17°C / 14°C 230º 6kt 7000m - Clear 1016 No Significant change UMGG 032200Z 23003MPS 7000 NSC 17/14 Q1016 R28/CLRD// NOSIG
MVFR 17°C / 14°C 250º 6kt 8000m - Clear 1016 No Significant change UMGG 032100Z 25003MPS 8000 NSC 17/14 Q1016 R28/CLRD// NOSIG
MVFR 18°C / 13°C 230º 6kt 8000m - Clear 1015 No Significant change UMGG 032000Z 23003MPS 8000 NSC 18/13 Q1015 R28/CLRD// NOSIG
VFR 18°C / 13°C 230º 6kt >10km - Clouds and Visibility OK 1014 No Significant change UMGG 031900Z 23003MPS CAVOK 18/13 Q1014 R28/CLRD// NOSIG

VFR

25°C / 9°C

[მეტი]
ქარი 190º 6kt
ხილვადობა >10km
ამინდი -
ღრუბლები Clouds and Visibility OK
წნევა 1018
ცვლილება No Significant change
დაუმუშავებელი UMGG 041030Z 19003MPS CAVOK 25/09 Q1018 R28/CLRD// NOSIG

VFR

25°C / 9°C

[მეტი]
ქარი 200º 6kt
ხილვადობა >10km
ამინდი -
ღრუბლები Clouds and Visibility OK
წნევა 1018
ცვლილება No Significant change
დაუმუშავებელი UMGG 041000Z 20003MPS CAVOK 25/09 Q1018 R28/CLRD// NOSIG

VFR

24°C / 9°C

[მეტი]
ქარი 240º 10kt Gust 16kt
ხილვადობა >10km
ამინდი -
ღრუბლები Clouds and Visibility OK
წნევა 1018
ცვლილება No Significant change
დაუმუშავებელი UMGG 040930Z 24005G08MPS CAVOK 24/09 Q1018 R28/CLRD// NOSIG

VFR

24°C / 9°C

[მეტი]
ქარი 190º 6kt
ხილვადობა >10km
ამინდი -
ღრუბლები Clouds and Visibility OK
წნევა 1018
ცვლილება No Significant change
დაუმუშავებელი UMGG 040900Z 19003MPS CAVOK 24/09 Q1018 R28/CLRD// NOSIG

VFR

24°C / 8°C

[მეტი]
ქარი 210º 10kt
ხილვადობა >10km
ამინდი -
ღრუბლები Clouds and Visibility OK
წნევა 1018
ცვლილება No Significant change
დაუმუშავებელი UMGG 040830Z 21005MPS CAVOK 24/08 Q1018 R28/CLRD// NOSIG

VFR

24°C / 8°C

[მეტი]
ქარი 210º 10kt
ხილვადობა >10km
ამინდი -
ღრუბლები Clouds and Visibility OK
წნევა 1018
ცვლილება No Significant change
დაუმუშავებელი UMGG 040800Z 21005MPS CAVOK 24/08 Q1018 R28/CLRD// NOSIG

VFR

22°C / 11°C

[მეტი]
ქარი 230º 6kt
ხილვადობა >10km
ამინდი -
ღრუბლები Clouds and Visibility OK
წნევა 1018
ცვლილება No Significant change
დაუმუშავებელი UMGG 040730Z 23003MPS CAVOK 22/11 Q1018 R28/CLRD// NOSIG

VFR

22°C / 11°C

[მეტი]
ქარი 220º 4kt
ხილვადობა >10km
ამინდი -
ღრუბლები Clouds and Visibility OK
წნევა 1018
ცვლილება No Significant change
დაუმუშავებელი UMGG 040700Z 22002MPS CAVOK 22/11 Q1018 R28/D NOSIG

VFR

21°C / 12°C

[მეტი]
ქარი 170º 6kt
ხილვადობა >10km
ამინდი -
ღრუბლები Clouds and Visibility OK
წნევა 1018
ცვლილება No Significant change
დაუმუშავებელი UMGG 040630Z 17003MPS CAVOK 21/12 Q1018 R28/D NOSIG

VFR

21°C / 12°C

[მეტი]
ქარი 160º 6kt
ხილვადობა >10km
ამინდი -
ღრუბლები Clouds and Visibility OK
წნევა 1018
ცვლილება No Significant change
დაუმუშავებელი UMGG 040600Z 16003MPS CAVOK 21/12 Q1018 R28/D NOSIG

VFR

19°C / 13°C

[მეტი]
ქარი variable 2kt
ხილვადობა >10km
ამინდი -
ღრუბლები Clouds and Visibility OK
წნევა 1018
ცვლილება No Significant change
დაუმუშავებელი UMGG 040530Z VRB01MPS CAVOK 19/13 Q1018 R28/CLRD// NOSIG

VFR

19°C / 13°C

[მეტი]
ქარი 230º 6kt
ხილვადობა >10km
ამინდი -
ღრუბლები Clouds and Visibility OK
წნევა 1017
ცვლილება No Significant change
დაუმუშავებელი UMGG 040500Z 23003MPS CAVOK 19/13 Q1017 R28/D NOSIG

VFR

15°C / 12°C

[მეტი]
ქარი 220º 6kt
ხილვადობა >10km
ამინდი -
ღრუბლები Clouds and Visibility OK
წნევა 1017
ცვლილება No Significant change
დაუმუშავებელი UMGG 040430Z 22003MPS CAVOK 15/12 Q1017 R28/CLRD// NOSIG

VFR

15°C / 12°C

[მეტი]
ქარი 220º 6kt
ხილვადობა >10km
ამინდი -
ღრუბლები Clouds and Visibility OK
წნევა 1017
ცვლილება No Significant change
დაუმუშავებელი UMGG 040400Z 22003MPS CAVOK 15/12 Q1017 R28/CLRD// NOSIG

VFR

13°C / 12°C

[მეტი]
ქარი 240º 6kt
ხილვადობა >10km
ამინდი -
ღრუბლები Clouds and Visibility OK
წნევა 1017
ცვლილება No Significant change
დაუმუშავებელი UMGG 040330Z 24003MPS CAVOK 13/12 Q1017 R28/CLRD// NOSIG

VFR

13°C / 12°C

[მეტი]
ქარი 240º 6kt
ხილვადობა 9000m
ამინდი -
ღრუბლები Clear
წნევა 1016
ცვლილება No Significant change
დაუმუშავებელი UMGG 040300Z 24003MPS 9000 NSC 13/12 Q1016 R28/D NOSIG

MVFR

15°C / 13°C

[მეტი]
ქარი 260º 6kt
ხილვადობა 8000m
ამინდი -
ღრუბლები Clear
წნევა 1016
ცვლილება No Significant change
დაუმუშავებელი UMGG 040200Z 26003MPS 8000 NSC 15/13 Q1016 R28/CLRD// NOSIG

MVFR

15°C / 13°C

[მეტი]
ქარი 250º 6kt
ხილვადობა 7000m
ამინდი -
ღრუბლები Clear
წნევა 1016
ცვლილება No Significant change
დაუმუშავებელი UMGG 040100Z 25003MPS 7000 NSC 15/13 Q1016 R28/CLRD// NOSIG

MVFR

16°C / 13°C

[მეტი]
ქარი 260º 6kt
ხილვადობა 8000m
ამინდი -
ღრუბლები Clear
წნევა 1016
ცვლილება No Significant change
დაუმუშავებელი UMGG 040000Z 26003MPS 8000 NSC 16/13 Q1016 R28/CLRD// NOSIG

MVFR

16°C / 14°C

[მეტი]
ქარი 240º 8kt
ხილვადობა 8000m
ამინდი -
ღრუბლები Clear
წნევა 1016
ცვლილება No Significant change
დაუმუშავებელი UMGG 032300Z 24004MPS 8000 NSC 16/14 Q1016 R28/CLRD// NOSIG

MVFR

17°C / 14°C

[მეტი]
ქარი 230º 6kt
ხილვადობა 7000m
ამინდი -
ღრუბლები Clear
წნევა 1016
ცვლილება No Significant change
დაუმუშავებელი UMGG 032200Z 23003MPS 7000 NSC 17/14 Q1016 R28/CLRD// NOSIG

MVFR

17°C / 14°C

[მეტი]
ქარი 250º 6kt
ხილვადობა 8000m
ამინდი -
ღრუბლები Clear
წნევა 1016
ცვლილება No Significant change
დაუმუშავებელი UMGG 032100Z 25003MPS 8000 NSC 17/14 Q1016 R28/CLRD// NOSIG

MVFR

18°C / 13°C

[მეტი]
ქარი 230º 6kt
ხილვადობა 8000m
ამინდი -
ღრუბლები Clear
წნევა 1015
ცვლილება No Significant change
დაუმუშავებელი UMGG 032000Z 23003MPS 8000 NSC 18/13 Q1015 R28/CLRD// NOSIG

VFR

18°C / 13°C

[მეტი]
ქარი 230º 6kt
ხილვადობა >10km
ამინდი -
ღრუბლები Clouds and Visibility OK
წნევა 1014
ცვლილება No Significant change
დაუმუშავებელი UMGG 031900Z 23003MPS CAVOK 18/13 Q1014 R28/CLRD// NOSIG

TAF 52.53°ჩრ. 31.02°აღმ. (UMGG)-თვის

From till


Maximum Temperature 25ºC on . Minimum Temperature 13ºC on .
From till Wind 260º 12kt. Visibility 10km or more. Broken Clouds 2500ft.
Becoming from till Wind 160º 12kt. Visibility 10km or more. Broken Clouds 2500ft.
Temporarly from till Wind variable 4kt. Visibility 2000m. Mist . Broken Clouds 500ft.
Temporarly from till Wind 130º 12kt. Visibility 2000m. Showers Rain Mist . Broken Clouds 500ft. Broken Clouds 2500ft.
With 40% probability, Temporarly from till Visibility 2000m. Thunderstorm Rain . Broken Clouds 2500ft.

დაუმუშავებელი: TAF UMGG 040500Z 0406/0506 26006MPS 9999 BKN025 TX25/0412Z TN13/0503Z BECMG 0416/0418 16006MPS TEMPO 0421/0424 VRB02MPS 2000 BR BKN005 TEMPO 0500/0506 13006MPS 2000 SHRA BR BKN005 BKN025CB PROB40 TEMPO 0500/0506 2000 TSRA BKN025CB

მიმდინარე სატელიტისა და წვიმის სურათები 52.53°ჩრ. 31.02°აღმ.-თვის

ლოკაციის მარკერი დაყენებყლია 52.53°ჩრ. 31.02°აღმ.ზე. [მეტი]

რეალურ დროში სატელიტური სურათი აერთიანებს ხილულ სინათლეს დღისით ღამის განმავლობაში ინფრაწითელ გამოსხივებასთან ერთად. ღამით, სურათი არ არის მუქი, რადგან ინფრაწითელ გამოსხივებას შეუძლია ტემპერატურის განსხვავებების დადგენა. სამწუხაროდ, დაბალი ღრუბლები და ნისლი ძნელია განასხვავონ მიწის ტემპერატურისგან და, შესაბამისად, ისინი შეიძლება თითქმის არ ჩანდეს ღამით. Meteosat სატელიტური გამოსახულება ევროპისთვის ახლდება რეალურ დროში ყოველ 5 წუთში. GOES-16/GOES-17 (ჩრდილოეთი და სამხრეთ ამერიკა) და ჰიმავარი (აზია) გამოსახულებები ახლდება ყოველ 10 წუთში.

საავტორო უფლებები 2021 EUMETSAT / meteoblue. / საავტორო უფლებები 2021 meteoblue

რადარის და ნალექების მაჩვენებელი 52.53°ჩრ. 31.02°აღმ. -თვის

გაწურეთ
Მსუბუქი
ზომიერი
Მძიმე
Ძალიან მძიმე
სეტყვა

მდებარეობის მარკერი მოთავსებულია 52.53°ჩრ. 31.02°აღმ. -ზე. ეს ანიმაცია აჩვენებს ნალექების სარადარო მონაცემებს როგორც ბოლო საათის განმავლობაში, ასევე 1h პროგნოზს. ჟინჟღვლა და მსუბუქი თოვლი შესაძლოა რადარისთვის შეუმჩნეველი იყოს. ნალექის ინტენსიურობა ფერებით არის კოდირებული, დაწყებული ღია ცისფერიდან მუქ მეწამულამდე.